Time,TemperatureF,DewpointF,PressureIn,WindDirection,WindDirectionDegrees,WindSpeedMPH,WindSpeedGustMPH,Humidity,HourlyPrecipIn,Conditions,Clouds,dailyrainin,SoftwareType,DateUTC
2013-01-22 00:01:00,44.1,16.1,29.96,WSW,248,1.0,2.0,32,0.00,,FEW200,0.00,VWS V14.01,2013-01-22 05:01:00,
2013-01-22 00:10:00,44.0,16.0,29.95,West,267,1.0,3.0,32,0.00,,FEW200,0.00,VWS V14.01,2013-01-22 05:10:00,
2013-01-22 00:15:00,43.8,15.9,29.95,West,261,0.0,2.0,32,0.00,,FEW200,0.00,VWS V14.01,2013-01-22 05:15:00,
2013-01-22 00:20:00,43.5,15.6,29.95,West,266,3.0,3.0,32,0.00,,FEW200,0.00,VWS V14.01,2013-01-22 05:20:00,
2013-01-22 00:25:00,43.3,16.1,29.95,WSW,255,0.0,3.0,33,0.00,,FEW200,0.00,VWS V14.01,2013-01-22 05:25:00,
2013-01-22 00:30:00,42.9,15.8,29.96,WSW,243,0.0,1.0,33,0.00,,FEW200,0.00,VWS V14.01,2013-01-22 05:30:00,
2013-01-22 00:35:00,42.9,15.8,29.96,West,261,0.0,1.0,33,0.00,,FEW200,0.00,VWS V14.01,2013-01-22 05:35:00,
2013-01-22 00:40:00,42.7,16.3,29.96,West,281,0.0,1.0,34,0.00,,FEW200,0.00,VWS V14.01,2013-01-22 05:40:00,
2013-01-22 00:45:00,42.4,16.0,29.96,WSW,257,0.0,1.0,34,0.00,,FEW200,0.00,VWS V14.01,2013-01-22 05:45:00,
2013-01-22 00:50:00,42.2,15.9,29.97,WSW,255,0.0,1.0,34,0.00,,FEW200,0.00,VWS V14.01,2013-01-22 05:50:00,
2013-01-22 00:55:00,42.0,16.4,29.97,WSW,255,0.0,1.0,35,0.00,,FEW200,0.00,VWS V14.01,2013-01-22 05:55:00,
2013-01-22 01:00:00,41.7,16.1,29.97,WSW,257,0.0,1.0,35,0.00,,FEW200,0.00,VWS V14.01,2013-01-22 06:00:00,
2013-01-22 01:10:00,40.5,19.2,29.97,West,259,0.0,1.0,42,0.00,,FEW200,0.00,VWS V14.01,2013-01-22 06:10:00,
2013-01-22 01:15:00,39.1,19.6,29.97,West,259,0.0,0.0,45,0.00,,FEW200,0.00,VWS V14.01,2013-01-22 06:15:00,
2013-01-22 01:20:00,38.5,19.0,29.97,ENE,77,0.0,0.0,45,0.00,,FEW200,0.00,VWS V14.01,2013-01-22 06:20:00,
2013-01-22 01:25:00,37.9,19.5,29.98,ENE,77,0.0,0.0,47,0.00,,FEW200,0.00,VWS V14.01,2013-01-22 06:25:00,
2013-01-22 01:30:00,37.2,19.8,29.98,ENE,77,0.0,0.0,49,0.00,,FEW200,0.00,VWS V14.01,2013-01-22 06:30:00,
2013-01-22 01:40:00,35.9,23.8,29.98,ENE,67,0.0,0.0,61,0.00,,FEW200,0.00,VWS V14.01,2013-01-22 06:40:00,
2013-01-22 01:45:00,35.5,25.3,29.98,ENE,66,0.0,0.0,66,0.00,,FEW200,0.00,VWS V14.01,2013-01-22 06:45:00,
2013-01-22 01:50:00,35.3,23.2,29.98,ENE,67,0.0,0.0,61,0.00,,FEW200,0.00,VWS V14.01,2013-01-22 06:50:00,
2013-01-22 01:55:00,35.4,24.5,29.99,ENE,67,0.0,0.0,64,0.00,,FEW200,0.00,VWS V14.01,2013-01-22 06:55:00,
2013-01-22 02:00:00,35.2,22.7,29.99,ENE,66,0.0,0.0,60,0.00,,FEW200,0.00,VWS V14.01,2013-01-22 07:00:00,
2013-01-22 02:05:00,36.2,22.9,29.99,West,279,0.0,1.0,58,0.00,,FEW200,0.00,VWS V14.01,2013-01-22 07:05:00,
2013-01-22 02:10:00,36.7,22.9,29.99,NW,305,0.0,1.0,57,0.00,,FEW200,0.00,VWS V14.01,2013-01-22 07:10:00,
2013-01-22 02:20:00,38.7,17.0,29.99,West,278,0.0,1.0,41,0.00,,FEW200,0.00,VWS V14.01,2013-01-22 07:20:00,
2013-01-22 02:25:00,38.8,17.1,30.00,West,279,0.0,0.0,41,0.00,,FEW200,0.00,VWS V14.01,2013-01-22 07:25:00,
2013-01-22 02:30:00,39.1,17.4,30.00,WNW,283,0.0,1.0,41,0.00,,FEW200,0.00,VWS V14.01,2013-01-22 07:30:00,
2013-01-22 02:40:00,39.0,16.2,30.01,NW,311,0.0,6.0,39,0.00,,FEW200,0.00,VWS V14.01,2013-01-22 07:40:00,
2013-01-22 02:50:00,39.3,14.6,30.01,West,279,0.0,1.0,36,0.00,,FEW200,0.00,VWS V14.01,2013-01-22 07:50:00,
2013-01-22 02:55:00,39.2,14.5,30.02,West,264,1.0,2.0,36,0.00,,FEW200,0.00,VWS V14.01,2013-01-22 07:55:00,
2013-01-22 03:00:00,38.9,14.2,30.02,West,279,0.0,1.0,36,0.00,,FEW200,0.00,VWS V14.01,2013-01-22 08:00:00,
2013-01-22 03:10:00,38.7,13.4,30.02,West,271,0.0,1.0,35,0.00,,FEW200,0.00,VWS V14.01,2013-01-22 08:10:00,
2013-01-22 03:20:00,38.6,13.3,30.03,WNW,300,1.0,2.0,35,0.00,,FEW200,0.00,VWS V14.01,2013-01-22 08:20:00,
2013-01-22 03:30:00,38.2,12.3,30.03,WNW,286,1.0,3.0,34,0.00,,FEW200,0.00,VWS V14.01,2013-01-22 08:30:00,
2013-01-22 03:35:00,38.0,12.1,30.03,West,275,0.0,2.0,34,0.00,,FEW200,0.00,VWS V14.01,2013-01-22 08:35:00,
2013-01-22 03:40:00,37.8,12.6,30.03,WSW,257,0.0,1.0,35,0.00,,FEW200,0.00,VWS V14.01,2013-01-22 08:40:00,
2013-01-22 03:45:00,37.5,12.4,30.04,NW,305,0.0,1.0,35,0.00,,FEW200,0.00,VWS V14.01,2013-01-22 08:45:00,
2013-01-22 03:50:00,37.4,11.6,30.03,WNW,292,0.0,1.0,34,0.00,,FEW200,0.00,VWS V14.01,2013-01-22 08:50:00,
2013-01-22 03:55:00,37.1,12.0,30.03,WNW,292,0.0,1.0,35,0.00,,FEW200,0.00,VWS V14.01,2013-01-22 08:55:00,
2013-01-22 04:00:00,36.7,12.3,30.03,West,271,0.0,1.0,36,0.00,,FEW200,0.00,VWS V14.01,2013-01-22 09:00:00,
2013-01-22 04:10:00,36.8,11.7,30.04,WNW,301,0.0,3.0,35,0.00,,FEW200,0.00,VWS V14.01,2013-01-22 09:10:00,
2013-01-22 04:15:00,36.5,10.1,30.04,West,276,0.0,2.0,33,0.00,,FEW200,0.00,VWS V14.01,2013-01-22 09:15:00,
2013-01-22 04:20:00,36.6,10.2,30.04,West,270,1.0,2.0,33,0.00,,FEW200,0.00,VWS V14.01,2013-01-22 09:20:00,
2013-01-22 04:25:00,36.5,10.1,30.05,West,271,0.0,2.0,33,0.00,,FEW200,0.00,VWS V14.01,2013-01-22 09:25:00,
2013-01-22 04:30:00,36.3,10.6,30.05,West,272,0.0,0.0,34,0.00,,FEW200,0.00,VWS V14.01,2013-01-22 09:30:00,
2013-01-22 04:35:00,36.1,10.5,30.05,West,259,0.0,1.0,34,0.00,,FEW200,0.00,VWS V14.01,2013-01-22 09:35:00,
2013-01-22 04:40:00,35.8,10.8,30.06,West,259,0.0,1.0,35,0.00,,FEW200,0.00,VWS V14.01,2013-01-22 09:40:00,
2013-01-22 04:45:00,35.8,10.2,30.06,NW,317,0.0,3.0,34,0.00,,FEW200,0.00,VWS V14.01,2013-01-22 09:45:00,
2013-01-22 04:50:00,35.6,10.7,30.06,West,277,0.0,2.0,35,0.00,,FEW200,0.00,VWS V14.01,2013-01-22 09:50:00,
2013-01-22 04:55:00,35.3,10.4,30.07,NW,311,0.0,1.0,35,0.00,,FEW200,0.00,VWS V14.01,2013-01-22 09:55:00,
2013-01-22 05:05:00,34.7,11.7,30.07,WNW,283,0.0,1.0,38,0.00,,FEW200,0.00,VWS V14.01,2013-01-22 10:05:00,
2013-01-22 05:10:00,34.3,11.9,30.07,WNW,303,0.0,1.0,39,0.00,,FEW200,0.00,VWS V14.01,2013-01-22 10:10:00,
2013-01-22 05:15:00,34.0,11.1,30.08,NW,318,0.0,1.0,38,0.00,,FEW200,0.00,VWS V14.01,2013-01-22 10:15:00,
2013-01-22 05:20:00,33.8,11.5,30.08,NW,317,0.0,0.0,39,0.00,,FEW200,0.00,VWS V14.01,2013-01-22 10:20:00,
2013-01-22 05:25:00,33.6,11.3,30.08,NW,307,0.0,0.0,39,0.00,,FEW200,0.00,VWS V14.01,2013-01-22 10:25:00,
2013-01-22 05:30:00,33.4,11.1,30.09,WNW,299,0.0,1.0,39,0.00,,FEW200,0.00,VWS V14.01,2013-01-22 10:30:00,
2013-01-22 05:35:00,33.2,10.9,30.09,WNW,300,0.0,1.0,39,0.00,,FEW200,0.00,VWS V14.01,2013-01-22 10:35:00,
2013-01-22 05:40:00,32.9,11.2,30.09,WNW,299,0.0,1.0,40,0.00,,FEW200,0.00,VWS V14.01,2013-01-22 10:40:00,
2013-01-22 05:45:00,32.7,11.1,30.09,NW,310,0.0,0.0,40,0.00,,FEW200,0.00,VWS V14.01,2013-01-22 10:45:00,
2013-01-22 05:50:00,32.5,10.9,30.10,WNW,297,0.0,1.0,40,0.00,,FEW200,0.00,VWS V14.01,2013-01-22 10:50:00,
2013-01-22 05:55:00,32.4,11.3,30.10,WNW,298,0.0,1.0,41,0.00,,FEW200,0.00,VWS V14.01,2013-01-22 10:55:00,
2013-01-22 06:00:00,32.3,11.2,30.10,WNW,298,0.0,1.0,41,0.00,,FEW200,0.00,VWS V14.01,2013-01-22 11:00:00,
2013-01-22 06:05:00,32.1,11.1,30.11,WNW,298,0.0,1.0,41,0.00,,FEW200,0.00,VWS V14.01,2013-01-22 11:05:00,
2013-01-22 06:10:00,31.8,11.3,30.11,WNW,298,0.0,0.0,42,0.00,,FEW200,0.00,VWS V14.01,2013-01-22 11:10:00,
2013-01-22 06:15:00,31.6,11.7,30.12,WNW,298,0.0,0.0,43,0.00,,FEW200,0.00,VWS V14.01,2013-01-22 11:15:00,
2013-01-22 06:25:00,31.1,10.7,30.13,West,274,0.0,1.0,42,0.00,,FEW200,0.00,VWS V14.01,2013-01-22 11:25:00,
2013-01-22 06:30:00,31.0,10.6,30.13,West,274,0.0,1.0,42,0.00,,FEW200,0.00,VWS V14.01,2013-01-22 11:30:00,
2013-01-22 06:35:00,31.0,10.1,30.13,NW,305,0.0,1.0,41,0.00,,FEW200,0.00,VWS V14.01,2013-01-22 11:35:00,
2013-01-22 06:40:00,31.1,9.1,30.13,WNW,293,0.0,4.0,39,0.00,,FEW200,0.00,VWS V14.01,2013-01-22 11:40:00,
2013-01-22 06:45:00,31.2,9.1,30.14,WNW,297,0.0,1.0,39,0.00,,FEW200,0.00,VWS V14.01,2013-01-22 11:45:00,
2013-01-22 06:50:00,31.2,8.6,30.14,WNW,292,0.0,1.0,38,0.00,,FEW200,0.00,VWS V14.01,2013-01-22 11:50:00,
2013-01-22 07:00:00,30.9,8.3,30.14,West,271,0.0,2.0,38,0.00,,FEW200,0.00,VWS V14.01,2013-01-22 12:00:00,
2013-01-22 07:05:00,30.8,8.2,30.15,West,277,0.0,1.0,38,0.00,,FEW200,0.00,VWS V14.01,2013-01-22 12:05:00,
2013-01-22 07:10:00,30.7,8.1,30.15,West,277,0.0,1.0,38,0.00,,FEW200,0.00,VWS V14.01,2013-01-22 12:10:00,
2013-01-22 07:15:00,30.5,9.1,30.15,West,277,0.0,0.0,40,0.00,,FEW200,0.00,VWS V14.01,2013-01-22 12:15:00,
2013-01-22 07:20:00,30.3,8.3,30.16,West,277,0.0,0.0,39,0.00,,FEW200,0.00,VWS V14.01,2013-01-22 12:20:00,
2013-01-22 07:25:00,30.0,8.6,30.16,West,277,0.0,0.0,40,0.00,,FEW200,0.00,VWS V14.01,2013-01-22 12:25:00,
2013-01-22 07:30:00,29.9,8.5,30.16,SW,216,0.0,0.0,40,0.00,,FEW200,0.00,VWS V14.01,2013-01-22 12:30:00,
2013-01-22 07:35:00,30.0,8.1,30.17,NW,306,0.0,2.0,39,0.00,,FEW200,0.00,VWS V14.01,2013-01-22 12:35:00,
2013-01-22 07:40:00,30.1,8.1,30.17,West,263,0.0,1.0,39,0.00,,FEW200,0.00,VWS V14.01,2013-01-22 12:40:00,
2013-01-22 07:45:00,30.2,7.7,30.17,West,269,0.0,1.0,38,0.00,,FEW200,0.00,VWS V14.01,2013-01-22 12:45:00,
2013-01-22 07:50:00,30.4,7.8,30.17,NW,319,0.0,1.0,38,0.00,,FEW200,0.00,VWS V14.01,2013-01-22 12:50:00,
2013-01-22 07:55:00,30.6,8.0,30.17,NNW,342,0.0,1.0,38,0.00,,FEW200,0.00,VWS V14.01,2013-01-22 12:55:00,
2013-01-22 08:00:00,30.6,8.0,30.17,NW,307,0.0,1.0,38,0.00,,FEW200,0.00,VWS V14.01,2013-01-22 13:00:00,
2013-01-22 08:05:00,30.7,8.1,30.17,North,357,0.0,1.0,38,0.00,,FEW200,0.00,VWS V14.01,2013-01-22 13:05:00,
2013-01-22 08:15:00,30.8,7.0,30.18,WNW,290,3.0,3.0,36,0.00,,FEW200,0.00,VWS V14.01,2013-01-22 13:15:00,
2013-01-22 08:20:00,30.8,7.0,30.18,WNW,301,0.0,3.0,36,0.00,,FEW200,0.00,VWS V14.01,2013-01-22 13:20:00,
2013-01-22 08:25:00,30.9,7.1,30.18,WNW,295,0.0,3.0,36,0.00,,FEW200,0.00,VWS V14.01,2013-01-22 13:25:00,
2013-01-22 08:30:00,31.0,7.2,30.19,WNW,302,2.0,2.0,36,0.00,,FEW200,0.00,VWS V14.01,2013-01-22 13:30:00,
2013-01-22 08:35:00,30.9,6.5,30.18,WNW,291,2.0,4.0,35,0.00,,FEW200,0.00,VWS V14.01,2013-01-22 13:35:00,
2013-01-22 08:40:00,30.9,6.5,30.18,WNW,282,0.0,5.0,35,0.00,,FEW200,0.00,VWS V14.01,2013-01-22 13:40:00,
2013-01-22 08:45:00,30.9,6.5,30.18,North,356,1.0,6.0,35,0.00,,FEW200,0.00,VWS V14.01,2013-01-22 13:45:00,
2013-01-22 08:50:00,31.1,6.7,30.18,WNW,296,1.0,5.0,35,0.00,,FEW200,0.00,VWS V14.01,2013-01-22 13:50:00,
2013-01-22 08:55:00,31.2,6.1,30.19,WNW,291,2.0,2.0,34,0.00,,FEW200,0.00,VWS V14.01,2013-01-22 13:55:00,
2013-01-22 09:00:00,31.2,5.5,30.20,NW,316,1.0,3.0,33,0.00,,SCT200,0.00,VWS V14.01,2013-01-22 14:00:00,
2013-01-22 09:10:00,31.4,5.6,30.20,WSW,251,3.0,6.0,33,0.00,,SCT200,0.00,VWS V14.01,2013-01-22 14:10:00,
2013-01-22 09:15:00,31.7,5.9,30.21,NW,306,0.0,3.0,33,0.00,,SCT200,0.00,VWS V14.01,2013-01-22 14:15:00,
2013-01-22 09:20:00,31.9,5.4,30.21,WNW,300,1.0,2.0,32,0.00,,SCT200,0.00,VWS V14.01,2013-01-22 14:20:00,
2013-01-22 09:25:00,32.0,6.8,30.22,NNW,337,0.0,2.0,34,0.00,,SCT200,0.00,VWS V14.01,2013-01-22 14:25:00,
2013-01-22 09:30:00,32.4,5.8,30.22,WNW,297,1.0,2.0,32,0.00,,SCT200,0.00,VWS V14.01,2013-01-22 14:30:00,
2013-01-22 09:35:00,33.0,6.4,30.22,WNW,300,1.0,3.0,32,0.00,,SCT200,0.00,VWS V14.01,2013-01-22 14:35:00,
2013-01-22 09:40:00,33.5,6.1,30.22,NW,306,0.0,4.0,31,0.00,,SCT200,0.00,VWS V14.01,2013-01-22 14:40:00,
2013-01-22 09:45:00,33.7,4.8,30.22,WNW,285,2.0,3.0,29,0.00,,SCT200,0.00,VWS V14.01,2013-01-22 14:45:00,
2013-01-22 09:50:00,33.7,4.8,30.22,WNW,283,2.0,9.0,29,0.00,,SCT200,0.00,VWS V14.01,2013-01-22 14:50:00,
2013-01-22 09:55:00,34.0,6.6,30.23,NW,316,0.0,7.0,31,0.00,,SCT200,0.00,VWS V14.01,2013-01-22 14:55:00,
2013-01-22 10:00:00,34.4,6.2,30.23,NW,316,0.0,3.0,30,0.00,,SCT200,0.00,VWS V14.01,2013-01-22 15:00:00,
2013-01-22 10:10:00,34.8,5.0,30.23,WNW,297,0.0,3.0,28,0.00,,SCT200,0.00,VWS V14.01,2013-01-22 15:10:00,
2013-01-22 10:15:00,35.2,5.4,30.23,West,281,2.0,4.0,28,0.00,,SCT200,0.00,VWS V14.01,2013-01-22 15:15:00,
2013-01-22 10:20:00,35.5,4.0,30.23,NW,311,2.0,3.0,26,0.00,,SCT200,0.00,VWS V14.01,2013-01-22 15:20:00,
2013-01-22 10:25:00,35.4,4.8,30.23,NW,323,0.0,3.0,27,0.00,,SCT200,0.00,VWS V14.01,2013-01-22 15:25:00,
2013-01-22 10:30:00,35.7,4.2,30.23,NW,312,1.0,3.0,26,0.00,,SCT200,0.00,VWS V14.01,2013-01-22 15:30:00,
2013-01-22 10:40:00,36.2,4.6,30.23,WNW,290,1.0,6.0,26,0.00,,SCT200,0.00,VWS V14.01,2013-01-22 15:40:00,
2013-01-22 10:45:00,36.7,4.2,30.23,WNW,297,1.0,5.0,25,0.00,,SCT200,0.00,VWS V14.01,2013-01-22 15:45:00,
2013-01-22 10:50:00,36.3,3.9,30.23,NW,305,1.0,8.0,25,0.00,,SCT200,0.00,VWS V14.01,2013-01-22 15:50:00,
2013-01-22 11:00:00,37.2,3.8,30.23,NW,315,0.0,7.0,24,0.00,,SCT200,0.00,VWS V14.01,2013-01-22 16:00:00,
2013-01-22 11:10:00,37.1,4.6,30.23,WNW,293,1.0,4.0,25,0.00,,SCT200,0.00,VWS V14.01,2013-01-22 16:10:00,
2013-01-22 11:15:00,37.5,4.9,30.23,WNW,293,0.0,3.0,25,0.00,,SCT200,0.00,VWS V14.01,2013-01-22 16:15:00,
2013-01-22 11:20:00,36.9,0.6,30.22,WNW,290,2.0,4.0,21,0.00,,SCT200,0.00,VWS V14.01,2013-01-22 16:20:00,
2013-01-22 11:25:00,36.9,2.6,30.23,NW,307,1.0,6.0,23,0.00,,SCT200,0.00,VWS V14.01,2013-01-22 16:25:00,
2013-01-22 11:30:00,36.8,1.5,30.22,WSW,249,0.0,8.0,22,0.00,,SCT200,0.00,VWS V14.01,2013-01-22 16:30:00,
2013-01-22 11:35:00,37.5,4.0,30.22,WNW,295,2.0,3.0,24,0.00,,SCT200,0.00,VWS V14.01,2013-01-22 16:35:00,
2013-01-22 11:40:00,37.9,3.4,30.22,NW,312,2.0,6.0,23,0.00,,SCT200,0.00,VWS V14.01,2013-01-22 16:40:00,
2013-01-22 11:45:00,37.8,4.3,30.22,NE,44,1.0,6.0,24,0.00,,SCT200,0.00,VWS V14.01,2013-01-22 16:45:00,
2013-01-22 11:50:00,37.8,2.4,30.22,NNW,331,5.0,13.0,22,0.00,,SCT200,0.00,VWS V14.01,2013-01-22 16:50:00,
2013-01-22 11:55:00,38.1,0.6,30.22,NW,304,1.0,5.0,20,0.00,,SCT200,0.00,VWS V14.01,2013-01-22 16:55:00,
2013-01-22 12:00:00,37.7,1.3,30.21,WNW,295,2.0,7.0,21,0.00,,SCT200,0.00,VWS V14.01,2013-01-22 17:00:00,
2013-01-22 12:10:00,37.6,2.2,30.21,West,274,1.0,11.0,22,0.00,,SCT200,0.00,VWS V14.01,2013-01-22 17:10:00,
2013-01-22 12:15:00,38.0,2.5,30.21,NW,316,0.0,7.0,22,0.00,,SCT200,0.00,VWS V14.01,2013-01-22 17:15:00,
2013-01-22 12:20:00,38.3,2.8,30.20,WNW,286,3.0,5.0,22,0.00,,SCT200,0.00,VWS V14.01,2013-01-22 17:20:00,
2013-01-22 12:25:00,37.9,2.5,30.20,West,266,5.0,9.0,22,0.00,,SCT200,0.00,VWS V14.01,2013-01-22 17:25:00,
2013-01-22 12:30:00,37.9,2.5,30.20,WNW,300,2.0,6.0,22,0.00,,SCT200,0.00,VWS V14.01,2013-01-22 17:30:00,
2013-01-22 12:35:00,38.2,3.7,30.20,West,271,1.0,7.0,23,0.00,,SCT200,0.00,VWS V14.01,2013-01-22 17:35:00,
2013-01-22 12:40:00,38.0,2.5,30.19,WNW,284,2.0,6.0,22,0.00,,SCT200,0.00,VWS V14.01,2013-01-22 17:40:00,
2013-01-22 12:47:00,37.9,1.5,30.19,WNW,299,3.0,11.0,21,0.00,,SCT200,0.00,VWS V14.01,2013-01-22 17:47:00,
2013-01-22 12:55:00,37.6,1.2,30.19,NW,311,0.0,11.0,21,0.00,,SCT200,0.00,VWS V14.01,2013-01-22 17:55:00,
2013-01-22 13:00:00,38.0,1.5,30.19,WNW,297,3.0,4.0,21,0.00,,FEW200,0.00,VWS V14.01,2013-01-22 18:00:00,
2013-01-22 13:10:00,37.8,1.4,30.18,WNW,303,1.0,9.0,21,0.00,,FEW200,0.00,VWS V14.01,2013-01-22 18:10:00,
2013-01-22 13:15:00,38.1,1.6,30.19,NW,314,0.0,8.0,21,0.00,,FEW200,0.00,VWS V14.01,2013-01-22 18:15:00,
2013-01-22 13:20:00,38.3,-0.3,30.18,NNW,328,1.0,7.0,19,0.00,,FEW200,0.00,VWS V14.01,2013-01-22 18:20:00,
2013-01-22 13:25:00,38.8,2.2,30.18,WNW,297,2.0,4.0,21,0.00,,FEW200,0.00,VWS V14.01,2013-01-22 18:25:00,
2013-01-22 13:30:00,38.5,0.9,30.18,WNW,290,2.0,4.0,20,0.00,,FEW200,0.00,VWS V14.01,2013-01-22 18:30:00,
2013-01-22 13:35:00,38.3,0.8,30.18,West,266,1.0,5.0,20,0.00,,FEW200,0.00,VWS V14.01,2013-01-22 18:35:00,
2013-01-22 13:40:00,38.4,2.9,30.18,WNW,283,2.0,3.0,22,0.00,,FEW200,0.00,VWS V14.01,2013-01-22 18:40:00,
2013-01-22 13:45:00,38.5,2.0,30.18,West,274,0.0,2.0,21,0.00,,FEW200,0.00,VWS V14.01,2013-01-22 18:45:00,
2013-01-22 13:50:00,38.5,-0.2,30.18,NW,306,1.0,8.0,19,0.00,,FEW200,0.00,VWS V14.01,2013-01-22 18:50:00,
2013-01-22 13:55:00,38.4,0.8,30.18,WSW,255,2.0,3.0,20,0.00,,FEW200,0.00,VWS V14.01,2013-01-22 18:55:00,
2013-01-22 14:00:00,38.3,1.8,30.18,West,280,2.0,3.0,21,0.00,,FEW200,0.00,VWS V14.01,2013-01-22 19:00:00,
2013-01-22 14:10:00,38.1,0.6,30.18,WNW,295,2.0,7.0,20,0.00,,FEW200,0.00,VWS V14.01,2013-01-22 19:10:00,
2013-01-22 14:15:00,38.2,1.7,30.18,WSW,255,2.0,3.0,21,0.00,,FEW200,0.00,VWS V14.01,2013-01-22 19:15:00,
2013-01-22 14:20:00,38.6,2.0,30.18,NW,309,2.0,6.0,21,0.00,,FEW200,0.00,VWS V14.01,2013-01-22 19:20:00,
2013-01-22 14:25:00,38.1,1.6,30.17,West,280,0.0,6.0,21,0.00,,FEW200,0.00,VWS V14.01,2013-01-22 19:25:00,
2013-01-22 14:30:00,37.9,0.4,30.17,WNW,294,1.0,9.0,20,0.00,,FEW200,0.00,VWS V14.01,2013-01-22 19:30:00,
2013-01-22 14:35:00,37.8,1.4,30.17,WNW,297,2.0,3.0,21,0.00,,FEW200,0.00,VWS V14.01,2013-01-22 19:35:00,
2013-01-22 14:40:00,37.8,1.4,30.18,WNW,295,1.0,3.0,21,0.00,,FEW200,0.00,VWS V14.01,2013-01-22 19:40:00,
2013-01-22 14:45:00,37.7,0.3,30.17,West,271,1.0,5.0,20,0.00,,FEW200,0.00,VWS V14.01,2013-01-22 19:45:00,
2013-01-22 14:50:00,38.0,1.5,30.18,NW,316,0.0,2.0,21,0.00,,FEW200,0.00,VWS V14.01,2013-01-22 19:50:00,
2013-01-22 14:55:00,38.0,3.5,30.17,SSW,212,0.0,5.0,23,0.00,,FEW200,0.00,VWS V14.01,2013-01-22 19:55:00,
2013-01-22 15:00:00,38.6,4.0,30.17,WNW,290,1.0,5.0,23,0.00,,FEW200,0.00,VWS V14.01,2013-01-22 20:00:00,
2013-01-22 15:10:00,38.4,0.8,30.18,NW,316,0.0,6.0,20,0.00,,FEW200,0.00,VWS V14.01,2013-01-22 20:10:00,
2013-01-22 15:15:00,38.4,1.9,30.18,West,261,2.0,4.0,21,0.00,,FEW200,0.00,VWS V14.01,2013-01-22 20:15:00,
2013-01-22 15:20:00,38.2,2.7,30.17,SW,236,3.0,3.0,22,0.00,,FEW200,0.00,VWS V14.01,2013-01-22 20:20:00,
2013-01-22 15:25:00,38.3,2.8,30.18,West,278,2.0,5.0,22,0.00,,FEW200,0.00,VWS V14.01,2013-01-22 20:25:00,
2013-01-22 15:30:00,38.6,2.0,30.18,West,279,3.0,6.0,21,0.00,,FEW200,0.00,VWS V14.01,2013-01-22 20:30:00,
2013-01-22 15:35:00,38.5,3.0,30.18,WNW,300,1.0,3.0,22,0.00,,FEW200,0.00,VWS V14.01,2013-01-22 20:35:00,
2013-01-22 15:40:00,38.3,2.8,30.18,West,262,0.0,5.0,22,0.00,,FEW200,0.00,VWS V14.01,2013-01-22 20:40:00,
2013-01-22 15:45:00,38.7,5.0,30.18,WSW,248,1.0,3.0,24,0.00,,FEW200,0.00,VWS V14.01,2013-01-22 20:45:00,
2013-01-22 15:55:00,38.4,1.9,30.18,West,259,3.0,8.0,21,0.00,,FEW200,0.00,VWS V14.01,2013-01-22 20:55:00,
2013-01-22 16:00:00,38.4,3.8,30.19,NW,313,0.0,5.0,23,0.00,,FEW200,0.00,VWS V14.01,2013-01-22 21:00:00,
2013-01-22 16:10:00,38.0,-1.7,30.19,WSW,253,4.0,9.0,18,0.00,,FEW200,0.00,VWS V14.01,2013-01-22 21:10:00,
2013-01-22 16:15:00,37.8,-0.8,30.19,West,262,1.0,14.0,19,0.00,,FEW200,0.00,VWS V14.01,2013-01-22 21:15:00,
2013-01-22 16:20:00,37.8,-0.8,30.19,WNW,294,0.0,4.0,19,0.00,,FEW200,0.00,VWS V14.01,2013-01-22 21:20:00,
2013-01-22 16:25:00,37.7,1.3,30.19,NW,304,3.0,6.0,21,0.00,,FEW200,0.00,VWS V14.01,2013-01-22 21:25:00,
2013-01-22 16:30:00,37.5,-2.1,30.19,WSW,257,1.0,11.0,18,0.00,,FEW200,0.00,VWS V14.01,2013-01-22 21:30:00,
2013-01-22 16:35:00,37.3,-2.3,30.19,WNW,296,0.0,5.0,18,0.00,,FEW200,0.00,VWS V14.01,2013-01-22 21:35:00,
2013-01-22 16:40:00,37.2,-2.4,30.19,WNW,291,3.0,7.0,18,0.00,,FEW200,0.00,VWS V14.01,2013-01-22 21:40:00,
2013-01-22 16:45:00,37.1,-1.3,30.19,West,264,3.0,4.0,19,0.00,,FEW200,0.00,VWS V14.01,2013-01-22 21:45:00,
2013-01-22 16:50:00,37.3,-1.2,30.19,West,276,0.0,6.0,19,0.00,,FEW200,0.00,VWS V14.01,2013-01-22 21:50:00,
2013-01-22 16:55:00,37.5,-2.1,30.19,WNW,290,0.0,3.0,18,0.00,,FEW200,0.00,VWS V14.01,2013-01-22 21:55:00,
2013-01-22 17:00:00,37.4,1.0,30.19,West,262,0.0,2.0,21,0.00,,FEW200,0.00,VWS V14.01,2013-01-22 22:00:00,
2013-01-22 17:10:00,36.5,-1.8,30.20,West,261,0.0,1.0,19,0.00,,FEW200,0.00,VWS V14.01,2013-01-22 22:10:00,
2013-01-22 17:15:00,36.1,-0.1,30.20,West,266,0.0,1.0,21,0.00,,FEW200,0.00,VWS V14.01,2013-01-22 22:15:00,
2013-01-22 17:20:00,35.9,-1.2,30.20,West,263,1.0,1.0,20,0.00,,FEW200,0.00,VWS V14.01,2013-01-22 22:20:00,
2013-01-22 17:30:00,35.3,-1.8,30.20,West,278,0.0,2.0,20,0.00,,FEW200,0.00,VWS V14.01,2013-01-22 22:30:00,
2013-01-22 17:35:00,35.2,1.1,30.20,WSW,246,0.0,0.0,23,0.00,,FEW200,0.00,VWS V14.01,2013-01-22 22:35:00,
2013-01-22 17:40:00,34.7,0.7,30.20,WSW,246,0.0,0.0,23,0.00,,FEW200,0.00,VWS V14.01,2013-01-22 22:40:00,
2013-01-22 17:45:00,34.2,1.2,30.20,WSW,246,0.0,0.0,24,0.00,,FEW200,0.00,VWS V14.01,2013-01-22 22:45:00,
2013-01-22 17:50:00,33.9,2.7,30.20,WSW,246,0.0,0.0,26,0.00,,FEW200,0.00,VWS V14.01,2013-01-22 22:50:00,
2013-01-22 17:55:00,33.5,4.7,30.21,WSW,246,0.0,0.0,29,0.00,,FEW200,0.00,VWS V14.01,2013-01-22 22:55:00,
2013-01-22 18:00:00,32.9,4.1,30.21,WSW,246,0.0,0.0,29,0.00,,FEW250,0.00,VWS V14.01,2013-01-22 23:00:00,
2013-01-22 18:10:00,31.7,11.8,30.21,WSW,246,0.0,0.0,43,0.00,,FEW250,0.00,VWS V14.01,2013-01-22 23:10:00,
2013-01-22 18:15:00,31.1,14.2,30.22,WSW,246,0.0,0.0,49,0.00,,FEW250,0.00,VWS V14.01,2013-01-22 23:15:00,
2013-01-22 18:20:00,30.7,13.8,30.22,WSW,246,0.0,0.0,49,0.00,,FEW250,0.00,VWS V14.01,2013-01-22 23:20:00,
2013-01-22 18:25:00,30.2,13.4,30.22,WSW,246,0.0,0.0,49,0.00,,FEW250,0.00,VWS V14.01,2013-01-22 23:25:00,
2013-01-22 18:35:00,29.4,9.7,30.22,WSW,246,0.0,0.0,43,0.00,,FEW250,0.00,VWS V14.01,2013-01-22 23:35:00,
2013-01-22 18:40:00,29.0,8.3,30.23,WSW,246,0.0,0.0,41,0.00,,FEW250,0.00,VWS V14.01,2013-01-22 23:40:00,
2013-01-22 18:45:00,28.8,7.5,30.23,WSW,246,0.0,0.0,40,0.00,,FEW250,0.00,VWS V14.01,2013-01-22 23:45:00,
2013-01-22 18:50:00,28.5,7.8,30.23,WSW,246,0.0,0.0,41,0.00,,FEW250,0.00,VWS V14.01,2013-01-22 23:50:00,
2013-01-22 18:55:00,28.3,7.6,30.23,WSW,246,0.0,0.0,41,0.00,,FEW250,0.00,VWS V14.01,2013-01-22 23:55:00,
2013-01-22 19:00:00,28.1,9.0,30.23,WSW,246,0.0,0.0,44,0.00,,CLR,0.00,VWS V14.01,2013-01-23 00:00:00,
2013-01-22 19:10:00,27.7,9.6,30.23,WSW,246,0.0,0.0,46,0.00,,CLR,0.00,VWS V14.01,2013-01-23 00:10:00,
2013-01-22 19:20:00,27.3,9.3,30.23,WSW,246,0.0,0.0,46,0.00,,CLR,0.00,VWS V14.01,2013-01-23 00:20:00,
2013-01-22 19:25:00,27.1,9.6,30.23,WSW,246,0.0,0.0,47,0.00,,CLR,0.00,VWS V14.01,2013-01-23 00:25:00,
2013-01-22 19:30:00,27.0,8.5,30.23,WSW,246,0.0,0.0,45,0.00,,CLR,0.00,VWS V14.01,2013-01-23 00:30:00,
2013-01-22 19:40:00,26.6,9.1,30.24,WSW,246,0.0,0.0,47,0.00,,CLR,0.00,VWS V14.01,2013-01-23 00:40:00,
2013-01-22 19:45:00,26.4,9.4,30.24,WSW,246,0.0,0.0,48,0.00,,CLR,0.00,VWS V14.01,2013-01-23 00:45:00,
2013-01-22 19:50:00,26.3,10.6,30.23,WSW,246,0.0,0.0,51,0.00,,CLR,0.00,VWS V14.01,2013-01-23 00:50:00,
2013-01-22 20:00:00,26.1,13.4,30.24,WSW,246,0.0,0.0,58,0.00,,CLR,0.00,VWS V14.01,2013-01-23 01:00:00,
2013-01-22 20:10:00,25.8,13.5,30.24,WSW,246,0.0,0.0,59,0.00,,CLR,0.00,VWS V14.01,2013-01-23 01:10:00,
2013-01-22 20:15:00,25.7,13.0,30.24,WSW,246,0.0,0.0,58,0.00,,CLR,0.00,VWS V14.01,2013-01-23 01:15:00,
2013-01-22 20:20:00,25.6,15.1,30.23,WSW,246,0.0,0.0,64,0.00,,CLR,0.00,VWS V14.01,2013-01-23 01:20:00,
2013-01-22 20:25:00,25.4,14.6,30.24,WSW,246,0.0,0.0,63,0.00,,CLR,0.00,VWS V14.01,2013-01-23 01:25:00,
2013-01-22 20:30:00,25.4,14.2,30.25,WSW,245,0.0,0.0,62,0.00,,CLR,0.00,VWS V14.01,2013-01-23 01:30:00,
2013-01-22 20:35:00,25.5,14.7,30.25,WSW,246,0.0,0.0,63,0.00,,CLR,0.00,VWS V14.01,2013-01-23 01:35:00,
2013-01-22 20:40:00,25.4,14.2,30.25,WSW,246,0.0,0.0,62,0.00,,CLR,0.00,VWS V14.01,2013-01-23 01:40:00,
2013-01-22 20:50:00,25.6,9.6,30.26,WSW,245,0.0,0.0,50,0.00,,CLR,0.00,VWS V14.01,2013-01-23 01:50:00,
2013-01-22 20:55:00,25.6,13.3,30.26,WSW,246,0.0,0.0,59,0.00,,CLR,0.00,VWS V14.01,2013-01-23 01:55:00,
2013-01-22 21:00:00,25.7,12.2,30.26,WSW,245,0.0,0.0,56,0.00,,CLR,0.00,VWS V14.01,2013-01-23 02:00:00,
2013-01-22 21:10:00,25.9,11.1,30.25,WSW,245,0.0,0.0,53,0.00,,CLR,0.00,VWS V14.01,2013-01-23 02:10:00,
2013-01-22 21:15:00,25.9,11.6,30.25,WSW,246,0.0,0.0,54,0.00,,CLR,0.00,VWS V14.01,2013-01-23 02:15:00,
2013-01-22 21:20:00,25.8,13.1,30.25,WSW,245,0.0,0.0,58,0.00,,CLR,0.00,VWS V14.01,2013-01-23 02:20:00,
2013-01-22 21:25:00,25.6,14.8,30.25,WSW,245,0.0,0.0,63,0.00,,CLR,0.00,VWS V14.01,2013-01-23 02:25:00,
2013-01-22 21:30:00,25.4,16.0,30.26,WSW,245,0.0,0.0,67,0.00,,CLR,0.00,VWS V14.01,2013-01-23 02:30:00,
2013-01-22 21:40:00,24.9,16.5,30.26,WSW,245,0.0,0.0,70,0.00,,CLR,0.00,VWS V14.01,2013-01-23 02:40:00,
2013-01-22 21:45:00,24.8,16.4,30.26,WSW,245,0.0,0.0,70,0.00,,CLR,0.00,VWS V14.01,2013-01-23 02:45:00,
2013-01-22 21:55:00,24.4,12.9,30.27,WSW,245,0.0,0.0,61,0.00,,CLR,0.00,VWS V14.01,2013-01-23 02:55:00,
2013-01-22 22:00:00,24.2,13.4,30.27,WSW,245,0.0,0.0,63,0.00,,CLR,0.00,VWS V14.01,2013-01-23 03:00:00,
2013-01-22 22:10:00,23.9,11.7,30.27,WSW,245,0.0,0.0,59,0.00,,CLR,0.00,VWS V14.01,2013-01-23 03:10:00,
2013-01-22 22:15:00,23.7,10.7,30.28,WSW,245,0.0,0.0,57,0.00,,CLR,0.00,VWS V14.01,2013-01-23 03:15:00,
2013-01-22 22:25:00,23.3,15.0,30.28,WSW,245,0.0,0.0,70,0.00,,CLR,0.00,VWS V14.01,2013-01-23 03:25:00,
2013-01-22 22:30:00,23.2,15.8,30.28,WSW,245,0.0,0.0,73,0.00,,CLR,0.00,VWS V14.01,2013-01-23 03:30:00,
2013-01-22 22:40:00,22.7,15.1,30.29,WSW,245,0.0,0.0,72,0.00,,CLR,0.00,VWS V14.01,2013-01-23 03:40:00,
2013-01-22 22:50:00,22.8,15.8,30.30,WSW,245,0.0,0.0,74,0.00,,CLR,0.00,VWS V14.01,2013-01-23 03:50:00,
2013-01-22 22:55:00,22.7,12.4,30.30,WSW,245,0.0,0.0,64,0.00,,CLR,0.00,VWS V14.01,2013-01-23 03:55:00,
2013-01-22 23:00:00,22.4,11.0,30.30,WSW,245,0.0,0.0,61,0.00,,FEW110,0.00,VWS V14.01,2013-01-23 04:00:00,
2013-01-22 23:10:00,22.0,9.9,30.29,WSW,245,0.0,0.0,59,0.00,,FEW110,0.00,VWS V14.01,2013-01-23 04:10:00,
2013-01-22 23:15:00,21.9,12.6,30.29,WSW,245,0.0,0.0,67,0.00,,FEW110,0.00,VWS V14.01,2013-01-23 04:15:00,
2013-01-22 23:25:00,21.6,13.7,30.29,WSW,245,0.0,0.0,71,0.00,,FEW110,0.00,VWS V14.01,2013-01-23 04:25:00,
2013-01-22 23:30:00,21.6,14.0,30.29,WSW,245,0.0,0.0,72,0.00,,FEW110,0.00,VWS V14.01,2013-01-23 04:30:00,
2013-01-22 23:35:00,21.5,13.9,30.29,SW,229,0.0,1.0,72,0.00,,FEW110,0.00,VWS V14.01,2013-01-23 04:35:00,
2013-01-22 23:40:00,21.3,11.0,30.29,South,169,0.0,0.0,64,0.00,,FEW110,0.00,VWS V14.01,2013-01-23 04:40:00,
2013-01-22 23:50:00,21.1,10.8,30.29,South,169,0.0,0.0,64,0.00,,FEW110,0.00,VWS V14.01,2013-01-23 04:50:00,
2013-01-22 23:55:00,21.0,11.8,30.29,South,169,0.0,0.0,67,0.00,,FEW110,0.00,VWS V14.01,2013-01-23 04:55:00,